Skip Page Navigation
NASA JPL Caltech
NASA Logo - Jet Propulsion Laboratory + View the NASA Portal
+ Center for Near-Earth Object Studies
JPL Home Earth Solar System Stars & Galaxies Technology
JPL Solar System Dynamics
BODIES ORBITS EPHEMERIDES TOOLS PHYSICAL DATA DISCOVERY FAQ SITE MAP
JPL Small-Body Database Browser
Search: [ help ]  
249061 Anthonyberger (2007 TG298)
Classification: Main-belt Asteroid          SPK-ID: 2249061
Ephemeris | Orbit Diagram | Orbital Elements | Mission Design | Physical Parameters | Discovery Circumstances | Close-Approach Data ]

[ hide orbit diagram ]

For accurate long-term ephemerides, please instead use our Horizons system.This orbit viewer was implemented using two-body methods, and hence should not be used for determining accurate long-term trajectories (over several years or decades) or planetary encounter circumstances.


[ revert to old Java-based viewer ]

Orbital Elements at Epoch 2459000.5 (2020-May-31.0) TDB
Reference: JPL 11 (heliocentric ecliptic J2000)
 Element Value Uncertainty (1-sigma)   Units 
e .082260408476603 7.1884e-08  
a 2.775508817089003 2.2416e-08 au
q 2.547194328064849 2.1018e-07 au
i 3.511765164616968 4.5295e-06 deg
node 256.2441556496973 0.00011475 deg
peri 86.71765938545866 0.00011932 deg
M 322.2377457534691 2.9983e-05 deg
tp 2459177.660849875118
(2020-Nov-24.16084988)
0.00014039 TDB
period 1688.932698208859
4.62
2.046e-05
5.602e-08
d
yr
n .2131523656222571 2.5822e-09 deg/d
Q 3.003823306113158 2.426e-08 au
  Orbit Determination Parameters
   # obs. used (total)      231  
   data-arc span      7552 days (20.68 yr)  
   first obs. used      2000-02-12  
   last obs. used      2020-10-16  
   planetary ephem.      DE431  
   SB-pert. ephem.      SB431-N16  
   condition code      0  
   norm. resid. RMS      .56375  
   source      ORB  
   producer      Otto Matic  
   solution date      2020-Nov-12 00:20:36  

Additional Information
 Earth MOID = 1.54213 au 
 Jupiter MOID = 2.31082 au 
 T_jup = 3.328 
[ show covariance matrix ]

Ephemeris | Orbit Diagram | Orbital Elements | Mission Design | Physical Parameters | Discovery Circumstances | Close-Approach Data ]

Physical Parameter Table
Parameter Symbol Value Units Sigma Reference Notes
absolute magnitude H 16.3   n/a MPO437157  
diameter diameter 3.309 km 0.684 urn:nasa:pds:neowise_diameters_albedos::2.0[mainbelt] (http://adsabs.harvard.edu/abs/2012ApJ...759L...8M)  
geometric albedo albedo 0.049   0.015 urn:nasa:pds:neowise_diameters_albedos::2.0[mainbelt] (http://adsabs.harvard.edu/abs/2012ApJ...759L...8M)  

249061 Anthonyberger           Discovered 2007 Oct. 11 by L. H. Wasserman at the Anderson Mesa Station of the Lowell Observatory.
Anthony R. Berger (b. 1937) is a distinguished Canadian geologist. He has helped launch many international scientific NGOs, including the Association of Geoscientists for International Development. He has authored over 130 publications in earth science, science policy and environmental issues.
NOTE: some special characters may not display properly (any characters within {} are an attempt to place the proper accent above a character)
Reference: 20121228/MPCPages.arcLast Updated: 2013-01-02

[ show close-approach data ]
Ephemeris | Orbit Diagram | Orbital Elements | Mission Design | Physical Parameters | Discovery Circumstances | Close-Approach Data ]
ABOUT SSD CREDITS/AWARDS PRIVACY/COPYRIGHT GLOSSARY LINKS
FirstGov 2020-Dec-03 21:35 UT
(server date/time)  
NASA Home Page
Site Manager:   Ryan S. Park
Webmaster  Alan B. Chamberlin